TimeCST,TemperatureF,Dew PointF,Humidity,Sea Level PressureIn,VisibilityMPH,Wind Direction,Wind SpeedMPH,Gust SpeedMPH,PrecipitationIn,Events,Conditions,WindDirDegrees,DateUTC
12:15 AM,44.6,30.2,57,29.98,1.0,NNE,3.5,-,N/A,Rain,Light Rain,20,2013-12-29 06:15:00
12:35 AM,44.6,30.2,57,29.98,2.0,NNW,4.6,-,0.01,Rain,Light Rain,330,2013-12-29 06:35:00
12:55 AM,44.6,30.2,57,29.96,2.0,North,4.6,-,0.01,,Light Drizzle,10,2013-12-29 06:55:00
1:15 AM,44.6,30.2,57,29.96,3.0,NNW,5.8,-,N/A,,Haze,330,2013-12-29 07:15:00
1:35 AM,44.6,30.2,57,29.98,3.0,NW,4.6,-,N/A,Rain,Light Rain,310,2013-12-29 07:35:00
1:55 AM,44.6,30.2,57,29.98,2.5,Calm,Calm,-,0.01,Rain,Light Rain,0,2013-12-29 07:55:00
2:15 AM,42.8,30.2,61,29.97,2.5,Calm,Calm,-,N/A,,Haze,0,2013-12-29 08:15:00
2:35 AM,42.8,30.2,61,29.97,4.0,Calm,Calm,-,N/A,,Haze,0,2013-12-29 08:35:00
2:55 AM,42.8,30.2,61,29.97,3.0,Calm,Calm,-,N/A,,Haze,0,2013-12-29 08:55:00
3:15 AM,42.8,30.2,61,29.97,4.0,Calm,Calm,-,N/A,,Haze,0,2013-12-29 09:15:00
3:35 AM,42.8,30.2,61,29.98,3.0,Calm,Calm,-,N/A,,Haze,0,2013-12-29 09:35:00
3:55 AM,42.8,30.2,61,29.97,3.0,Calm,Calm,-,N/A,,Haze,0,2013-12-29 09:55:00
4:15 AM,42.8,30.2,61,29.97,3.0,Calm,Calm,-,N/A,,Haze,0,2013-12-29 10:15:00
4:35 AM,42.8,30.2,61,29.98,3.0,Calm,Calm,-,N/A,,Haze,0,2013-12-29 10:35:00
4:55 AM,44.6,30.2,57,29.98,3.0,Calm,Calm,-,N/A,,Haze,0,2013-12-29 10:55:00
5:15 AM,44.6,30.2,57,29.99,3.0,West,3.5,-,N/A,,Haze,260,2013-12-29 11:15:00
5:35 AM,44.6,30.2,57,30.00,1.2,West,5.8,-,N/A,,Haze,270,2013-12-29 11:35:00
5:55 AM,44.6,30.2,57,30.01,1.2,West,3.5,-,N/A,,Haze,280,2013-12-29 11:55:00
6:15 AM,44.6,30.2,57,30.01,1.0,WNW,4.6,-,N/A,,Overcast,300,2013-12-29 12:15:00
6:35 AM,44.6,30.2,57,30.02,1.5,West,3.5,-,N/A,,Haze,280,2013-12-29 12:35:00
6:55 AM,44.6,30.2,57,30.03,2.0,NW,3.5,-,N/A,,Haze,310,2013-12-29 12:55:00
7:15 AM,44.6,30.2,57,30.03,3.0,Calm,Calm,-,N/A,,Haze,0,2013-12-29 13:15:00
7:35 AM,44.6,30.2,57,30.03,2.5,Calm,Calm,-,N/A,,Haze,0,2013-12-29 13:35:00
7:55 AM,44.6,30.2,57,30.04,3.0,Calm,Calm,-,N/A,,Haze,0,2013-12-29 13:55:00
8:15 AM,44.6,32.0,61,30.05,3.0,NW,3.5,-,N/A,,Haze,310,2013-12-29 14:15:00
8:35 AM,44.6,32.0,61,30.05,3.0,Calm,Calm,-,N/A,,Haze,0,2013-12-29 14:35:00
8:55 AM,44.6,32.0,61,30.06,5.0,West,3.5,-,N/A,,Haze,280,2013-12-29 14:55:00
9:15 AM,46.4,32.0,57,30.08,2.5,WNW,5.8,-,N/A,,Haze,290,2013-12-29 15:15:00
9:35 AM,46.4,32.0,57,30.08,5.0,Calm,Calm,-,N/A,,Haze,0,2013-12-29 15:35:00
9:55 AM,48.2,32.0,54,30.09,7.0,NW,3.5,-,N/A,,Mostly Cloudy,310,2013-12-29 15:55:00
10:15 AM,50.0,33.8,54,30.08,8.0,Calm,Calm,-,N/A,,Mostly Cloudy,0,2013-12-29 16:15:00
10:35 AM,51.8,35.6,54,30.08,7.0,SW,4.6,-,N/A,,Mostly Cloudy,220,2013-12-29 16:35:00
10:55 AM,53.6,37.4,54,30.08,7.0,SW,6.9,-,N/A,,Mostly Cloudy,220,2013-12-29 16:55:00
11:15 AM,53.6,37.4,54,30.07,4.0,West,6.9,-,N/A,,Haze,260,2013-12-29 17:15:00
11:35 AM,55.4,39.2,54,30.06,3.0,WSW,6.9,-,N/A,,Haze,240,2013-12-29 17:35:00
11:55 AM,55.4,39.2,54,30.05,5.0,WSW,5.8,-,N/A,,Haze,250,2013-12-29 17:55:00
12:15 PM,57.2,41.0,55,30.04,9.0,WSW,4.6,-,N/A,,Clear,240,2013-12-29 18:15:00
12:35 PM,57.2,41.0,55,30.03,9.0,West,4.6,-,N/A,,Clear,270,2013-12-29 18:35:00
12:55 PM,57.2,42.8,59,30.04,9.0,SW,5.8,-,N/A,,Clear,220,2013-12-29 18:55:00
1:15 PM,59.0,42.8,55,30.03,9.0,West,8.1,-,N/A,,Clear,280,2013-12-29 19:15:00
1:35 PM,59.0,42.8,55,30.03,9.0,SSW,6.9,-,N/A,,Clear,210,2013-12-29 19:35:00
1:55 PM,60.8,42.8,52,30.02,9.0,West,3.5,-,N/A,,Clear,280,2013-12-29 19:55:00
2:15 PM,60.8,44.6,55,30.02,9.0,West,3.5,-,N/A,,Clear,270,2013-12-29 20:15:00
2:35 PM,60.8,44.6,55,30.02,8.0,West,4.6,-,N/A,,Clear,260,2013-12-29 20:35:00
2:55 PM,60.8,44.6,55,30.02,9.0,WSW,4.6,-,N/A,,Clear,250,2013-12-29 20:55:00
3:15 PM,60.8,44.6,55,30.03,9.0,West,4.6,-,N/A,,Clear,260,2013-12-29 21:15:00
3:35 PM,60.8,44.6,55,30.03,9.0,West,3.5,-,N/A,,Clear,260,2013-12-29 21:35:00
3:55 PM,60.8,44.6,55,30.03,9.0,West,4.6,-,N/A,,Clear,280,2013-12-29 21:55:00
4:15 PM,59.0,42.8,55,30.04,9.0,West,4.6,-,N/A,,Clear,280,2013-12-29 22:15:00
4:35 PM,55.4,39.2,54,30.05,9.0,West,3.5,-,N/A,,Clear,270,2013-12-29 22:35:00
4:55 PM,53.6,37.4,54,30.05,9.0,Calm,Calm,-,N/A,,Clear,0,2013-12-29 22:55:00
5:15 PM,51.8,35.6,54,30.05,9.0,Calm,Calm,-,N/A,,Partly Cloudy,0,2013-12-29 23:15:00
5:35 PM,48.2,33.8,58,30.05,10.0,Calm,Calm,-,N/A,,Mostly Cloudy,0,2013-12-29 23:35:00
5:55 PM,48.2,32.0,54,30.06,9.0,Calm,Calm,-,N/A,,Scattered Clouds,0,2013-12-29 23:55:00
6:15 PM,46.4,32.0,57,30.06,10.0,Calm,Calm,-,N/A,,Mostly Cloudy,0,2013-12-30 00:15:00
6:35 PM,48.2,33.8,58,30.06,10.0,Calm,Calm,-,N/A,,Mostly Cloudy,0,2013-12-30 00:35:00
6:55 PM,46.4,32.0,57,30.07,9.0,Calm,Calm,-,N/A,,Partly Cloudy,0,2013-12-30 00:55:00
7:15 PM,44.6,30.2,57,30.08,8.0,Calm,Calm,-,N/A,,Clear,0,2013-12-30 01:15:00
7:35 PM,44.6,30.2,57,30.09,7.0,Calm,Calm,-,N/A,,Partly Cloudy,0,2013-12-30 01:35:00
7:55 PM,44.6,30.2,57,30.09,8.0,Calm,Calm,-,N/A,,Scattered Clouds,0,2013-12-30 01:55:00
8:15 PM,44.6,32.0,61,30.10,8.0,Calm,Calm,-,N/A,,Scattered Clouds,0,2013-12-30 02:15:00
8:35 PM,44.6,32.0,61,30.10,9.0,Calm,Calm,-,N/A,,Mostly Cloudy,0,2013-12-30 02:35:00
8:55 PM,46.4,32.0,57,30.10,9.0,Calm,Calm,-,N/A,,Overcast,0,2013-12-30 02:55:00
9:15 PM,46.4,32.0,57,30.11,9.0,Calm,Calm,-,N/A,,Overcast,0,2013-12-30 03:15:00
9:35 PM,48.2,33.8,58,30.11,10.0,West,3.5,-,N/A,,Mostly Cloudy,280,2013-12-30 03:35:00
9:55 PM,48.2,33.8,58,30.11,10.0,Calm,Calm,-,N/A,,Partly Cloudy,0,2013-12-30 03:55:00
10:15 PM,46.4,32.0,57,30.12,4.0,Calm,Calm,-,N/A,,Haze,0,2013-12-30 04:15:00
10:35 PM,48.2,32.0,54,30.13,9.0,Calm,Calm,-,N/A,,Scattered Clouds,0,2013-12-30 04:35:00
10:55 PM,46.4,32.0,57,30.14,8.0,Calm,Calm,-,N/A,,Scattered Clouds,0,2013-12-30 04:55:00
11:15 PM,46.4,32.0,57,30.13,9.0,Calm,Calm,-,N/A,,Scattered Clouds,0,2013-12-30 05:15:00
11:35 PM,46.4,32.0,57,30.13,9.0,Calm,Calm,-,N/A,,Scattered Clouds,0,2013-12-30 05:35:00
11:55 PM,46.4,32.0,57,30.13,9.0,NW,3.5,-,N/A,,Mostly Cloudy,310,2013-12-30 05:55:00